| time (UTC) | temp C | wind direction | speed KPH | gust KPH | rain 1hr cm | rain 24hr cm | rain mn cm | humidity % | barometer mb |
| 20260502151808 | 23 | 130 | 3.2 | 3.2 | 0.00 | 0.00 | 0.00 | 57 | 1122.0 |
| 20260502151304 | 23 | 291 | 1.6 | 3.2 | 0.00 | 0.00 | 0.00 | 57 | 1122.2 |
| 20260502150802 | 23 | 321 | 1.6 | 8.0 | 0.00 | 0.00 | 0.00 | 56 | 1122.0 |
| 20260502150258 | 23 | 11 | 1.6 | 4.8 | 0.00 | 0.00 | 0.00 | 56 | 1121.8 |
| 20260502130647 | 18 | 254 | 0.0 | 1.6 | 0.00 | 0.00 | 0.00 | 70 | 1121.7 |
| 20260502130145 | 18 | 248 | 0.0 | 1.6 | 0.00 | 0.00 | 0.00 | 70 | 1121.6 |
| 20260502123630 | 17 | 258 | 0.0 | 0.0 | 0.00 | 0.00 | 0.00 | 77 | 1121.1 |
| 20260502123126 | 17 | 255 | 0.0 | 0.0 | 0.00 | 0.00 | 0.00 | 78 | 1121.2 |
| 20260502122623 | 17 | 236 | 0.0 | 1.6 | 0.00 | 0.00 | 0.00 | 78 | 1120.9 |
| 20260502122120 | 17 | 237 | 0.0 | 1.6 | 0.00 | 0.00 | 0.00 | 78 | 1121.0 |
| 20260502121618 | 17 | 230 | 0.0 | 1.6 | 0.00 | 0.00 | 0.00 | 78 | 1120.9 |
| 20260502121115 | 17 | 234 | 0.0 | 0.0 | 0.00 | 0.00 | 0.00 | 77 | 1121.1 |
| 20260502120611 | 17 | 220 | 0.0 | 1.6 | 0.00 | 0.00 | 0.00 | 77 | 1120.8 |
| 20260502120108 | 17 | 219 | 1.6 | 1.6 | 0.00 | 0.00 | 0.00 | 77 | 1120.7 |
| 20260502115607 | 17 | 230 | 0.0 | 1.6 | 0.00 | 0.00 | 0.00 | 76 | 1120.7 |
| 20260502115102 | 17 | 217 | 1.6 | 1.6 | 0.00 | 0.00 | 0.00 | 76 | 1120.5 |
| 20260502114559 | 17 | 226 | 3.2 | 4.8 | 0.00 | 0.00 | 0.00 | 76 | 1120.7 |
| 20260502114055 | 17 | 230 | 0.0 | 3.2 | 0.00 | 0.00 | 0.00 | 75 | 1120.3 |
| 20260502113553 | 17 | 194 | 4.8 | 4.8 | 0.00 | 0.00 | 0.00 | 75 | 1120.7 |
| 20260502113051 | 17 | 207 | 1.6 | 3.2 | 0.00 | 0.00 | 0.00 | 74 | 1120.3 |
| 20260502112549 | 17 | 177 | 4.8 | 4.8 | 0.00 | 0.00 | 0.00 | 74 | 1120.4 |
| 20260502112046 | 17 | 230 | 1.6 | 3.2 | 0.00 | 0.00 | 0.00 | 74 | 1120.5 |
| 20260502111544 | 17 | 233 | 1.6 | 3.2 | 0.00 | 0.00 | 0.00 | 73 | 1120.3 |
| 20260502111041 | 17 | 216 | 1.6 | 3.2 | 0.00 | 0.00 | 0.00 | 73 | 1120.4 |
| 20260502110538 | 17 | 240 | 1.6 | 1.6 | 0.00 | 0.00 | 0.00 | 73 | 1120.2 |
| 20260502110036 | 17 | 244 | 0.0 | 1.6 | 0.00 | 0.00 | 0.00 | 73 | 1120.3 |
| 20260502105533 | 18 | 237 | 1.6 | 3.2 | 0.00 | 0.00 | 0.00 | 73 | 1120.2 |
| 20260502105031 | 18 | 237 | 1.6 | 3.2 | 0.00 | 0.00 | 0.00 | 72 | 1120.1 |
| 20260502104527 | 18 | 249 | 3.2 | 3.2 | 0.00 | 0.00 | 0.00 | 72 | 1120.2 |
| 20260502104025 | 18 | 228 | 1.6 | 3.2 | 0.00 | 0.00 | 0.00 | 71 | 1120.0 |
| 20260502103522 | 18 | 199 | 1.6 | 3.2 | 0.00 | 0.00 | 0.00 | 71 | 1120.0 |
| 20260502103021 | 18 | 237 | 1.6 | 1.6 | 0.00 | 0.00 | 0.00 | 71 | 1120.0 |
| 20260502102517 | 18 | 228 | 1.6 | 1.6 | 0.00 | 0.00 | 0.00 | 70 | 1120.0 |
| 20260502102014 | 18 | 226 | 1.6 | 3.2 | 0.00 | 0.00 | 0.00 | 70 | 1119.9 |
| 20260502101512 | 18 | 232 | 1.6 | 4.8 | 0.00 | 0.00 | 0.00 | 70 | 1119.7 |
| 20260502101010 | 18 | 210 | 1.6 | 1.6 | 0.00 | 0.00 | 0.00 | 70 | 1119.9 |
| 20260502100508 | 18 | 207 | 1.6 | 3.2 | 0.00 | 0.00 | 0.00 | 69 | 1119.9 |
| 20260502091442 | 19 | 205 | 1.6 | 4.8 | 0.00 | 0.00 | 0.00 | 65 | 1119.5 |
| 20260502090939 | 19 | 203 | 6.4 | 9.7 | 0.00 | 0.00 | 0.00 | 64 | 1119.3 |
| 20260502090436 | 19 | 262 | 3.2 | 11.3 | 0.00 | 0.00 | 0.00 | 63 | 1119.6 |
| 20260502071331 | 20 | 292 | 3.2 | 3.2 | 0.00 | 0.00 | 0.00 | 55 | 1119.8 |
| 20260502070829 | 21 | 242 | 1.6 | 3.2 | 0.00 | 0.00 | 0.00 | 56 | 1119.8 |
| 20260502070326 | 21 | 227 | 3.2 | 8.0 | 0.00 | 0.00 | 0.00 | 56 | 1119.8 |
| 20260502065825 | 21 | 240 | 1.6 | 4.8 | 0.00 | 0.00 | 0.00 | 55 | 1119.8 |
| 20260502065323 | 21 | 228 | 3.2 | 4.8 | 0.00 | 0.00 | 0.00 | 55 | 1119.7 |
| 20260502064821 | 21 | 243 | 0.0 | 3.2 | 0.00 | 0.00 | 0.00 | 53 | 1119.8 |
| 20260502064318 | 21 | 230 | 1.6 | 3.2 | 0.00 | 0.00 | 0.00 | 52 | 1119.8 |
| 20260502063815 | 21 | 238 | 0.0 | 1.6 | 0.00 | 0.00 | 0.00 | 52 | 1119.8 |
| 20260502063313 | 21 | 242 | 0.0 | 1.6 | 0.00 | 0.00 | 0.00 | 52 | 1119.8 |
| 20260502062810 | 21 | 256 | 0.0 | 1.6 | 0.00 | 0.00 | 0.00 | 52 | 1119.7 |
| 20260502062308 | 21 | 256 | 0.0 | 1.6 | 0.00 | 0.00 | 0.00 | 52 | 1119.8 |
| 20260502061806 | 21 | 253 | 1.6 | 1.6 | 0.00 | 0.00 | 0.00 | 52 | 1119.8 |
| 20260502061304 | 21 | 249 | 0.0 | 0.0 | 0.00 | 0.00 | 0.00 | 54 | 1120.0 |
| 20260502060759 | 21 | 248 | 0.0 | 0.0 | 0.00 | 0.00 | 0.00 | 53 | 1119.9 |
| 20260502060254 | 21 | 247 | 0.0 | 1.6 | 0.00 | 0.00 | 0.00 | 52 | 1120.0 |
| 20260502055753 | 21 | 250 | 0.0 | 0.0 | 0.00 | 0.00 | 0.00 | 51 | 1120.0 |
| 20260502055250 | 21 | 249 | 0.0 | 1.6 | 0.00 | 0.00 | 0.00 | 49 | 1119.9 |
| 20260502054749 | 21 | 252 | 0.0 | 1.6 | 0.00 | 0.00 | 0.00 | 48 | 1119.9 |
| 20260502054246 | 21 | 260 | 0.0 | 1.6 | 0.00 | 0.00 | 0.00 | 48 | 1120.0 |
| 20260502053744 | 21 | 316 | 1.6 | 1.6 | 0.00 | 0.00 | 0.00 | 49 | 1119.9 |
| 20260502053241 | 21 | 266 | 0.0 | 1.6 | 0.00 | 0.00 | 0.00 | 48 | 1119.8 |
| 20260502052739 | 21 | 255 | 0.0 | 0.0 | 0.00 | 0.00 | 0.00 | 48 | 1119.9 |
| 20260502052237 | 21 | 253 | 0.0 | 0.0 | 0.00 | 0.00 | 0.00 | 48 | 1119.9 |
| 20260502051734 | 22 | 264 | 1.6 | 1.6 | 0.00 | 0.00 | 0.00 | 47 | 1120.0 |
| 20260502051233 | 22 | 252 | 1.6 | 3.2 | 0.00 | 0.00 | 0.00 | 45 | 1119.7 |
| 20260502050729 | 22 | 229 | 1.6 | 1.6 | 0.00 | 0.00 | 0.00 | 42 | 1120.0 |
| 20260502050225 | 22 | 233 | 1.6 | 1.6 | 0.00 | 0.00 | 0.00 | 43 | 1119.8 |
| 20260502045722 | 22 | 210 | 1.6 | 3.2 | 0.00 | 0.00 | 0.00 | 45 | 1119.5 |
| 20260502045219 | 22 | 228 | 1.6 | 3.2 | 0.00 | 0.00 | 0.00 | 47 | 1119.8 |
| 20260502044716 | 22 | 235 | 1.6 | 1.6 | 0.00 | 0.00 | 0.00 | 44 | 1119.7 |
| 20260502044212 | 22 | 228 | 1.6 | 3.2 | 0.00 | 0.00 | 0.00 | 47 | 1119.7 |
| 20260502043710 | 22 | 226 | 0.0 | 0.0 | 0.00 | 0.00 | 0.00 | 47 | 1119.4 |
| 20260502043207 | 22 | 226 | 0.0 | 0.0 | 0.00 | 0.00 | 0.00 | 46 | 1119.4 |
| 20260502042706 | 22 | 226 | 0.0 | 0.0 | 0.00 | 0.00 | 0.00 | 44 | 1119.5 |
| 20260502042204 | 23 | 226 | 0.0 | 0.0 | 0.00 | 0.00 | 0.00 | 41 | 1119.5 |
| 20260502041701 | 23 | 224 | 0.0 | 1.6 | 0.00 | 0.00 | 0.00 | 40 | 1119.4 |
| 20260502041158 | 23 | 221 | 0.0 | 1.6 | 0.00 | 0.00 | 0.00 | 40 | 1119.3 |
| 20260502040655 | 23 | 226 | 0.0 | 1.6 | 0.00 | 0.00 | 0.00 | 39 | 1119.4 |
| 20260502040152 | 23 | 76 | 1.6 | 3.2 | 0.00 | 0.00 | 0.00 | 38 | 1119.0 |
| 20260502035648 | 23 | 3 | 1.6 | 3.2 | 0.00 | 0.00 | 0.00 | 40 | 1119.1 |
| 20260502035145 | 23 | 342 | 1.6 | 3.2 | 0.00 | 0.00 | 0.00 | 41 | 1119.2 |
| 20260502034643 | 23 | 310 | 1.6 | 3.2 | 0.00 | 0.00 | 0.00 | 45 | 1119.1 |
| 20260502034141 | 23 | 307 | 1.6 | 1.6 | 0.00 | 0.00 | 0.00 | 46 | 1119.1 |
| 20260502033639 | 23 | 70 | 3.2 | 3.2 | 0.00 | 0.00 | 0.00 | 45 | 1119.1 |
| 20260502033136 | 23 | 302 | 1.6 | 1.6 | 0.00 | 0.00 | 0.00 | 47 | 1119.0 |
| 20260502032632 | 23 | 266 | 0.0 | 1.6 | 0.00 | 0.00 | 0.00 | 47 | 1119.0 |
| 20260502032129 | 23 | 314 | 1.6 | 4.8 | 0.00 | 0.00 | 0.00 | 47 | 1119.1 |
| 20260502031627 | 23 | 48 | 1.6 | 1.6 | 0.00 | 0.00 | 0.00 | 46 | 1119.0 |
| 20260502031124 | 23 | 306 | 1.6 | 1.6 | 0.00 | 0.00 | 0.00 | 46 | 1119.0 |
| 20260502030623 | 23 | 346 | 3.2 | 3.2 | 0.00 | 0.00 | 0.00 | 45 | 1118.5 |
| 20260502030121 | 23 | 278 | 1.6 | 1.6 | 0.00 | 0.00 | 0.00 | 45 | 1118.5 |
| 20260502025617 | 23 | 234 | 0.0 | 1.6 | 0.00 | 0.00 | 0.00 | 44 | 1118.5 |
| 20260502025116 | 23 | 246 | 0.0 | 3.2 | 0.00 | 0.00 | 0.00 | 43 | 1118.4 |
| 20260502024613 | 24 | 248 | 0.0 | 1.6 | 0.00 | 0.00 | 0.00 | 44 | 1118.2 |
| 20260502024111 | 24 | 260 | 0.0 | 3.2 | 0.00 | 0.00 | 0.00 | 43 | 1118.1 |
| 20260502023609 | 24 | 235 | 1.6 | 1.6 | 0.00 | 0.00 | 0.00 | 43 | 1118.2 |
| 20260502023106 | 24 | 229 | 1.6 | 1.6 | 0.00 | 0.00 | 0.00 | 43 | 1118.3 |
| 20260502022602 | 24 | 232 | 1.6 | 1.6 | 0.00 | 0.00 | 0.00 | 43 | 1118.0 |
| 20260502022100 | 24 | 224 | 0.0 | 1.6 | 0.00 | 0.00 | 0.00 | 43 | 1118.2 |
| 20260502021557 | 24 | 230 | 1.6 | 3.2 | 0.00 | 0.00 | 0.00 | 43 | 1118.1 |
| 20260502021054 | 24 | 241 | 0.0 | 1.6 | 0.00 | 0.00 | 0.00 | 44 | 1117.9 |
| 20260502020551 | 25 | 242 | 0.0 | 1.6 | 0.00 | 0.00 | 0.00 | 44 | 1117.9 |
| 20260502020048 | 25 | 243 | 0.0 | 1.6 | 0.00 | 0.00 | 0.00 | 44 | 1117.7 |
| 20260502015546 | 25 | 240 | 0.0 | 1.6 | 0.00 | 0.00 | 0.00 | 43 | 1117.6 |
| 20260502015042 | 25 | 253 | 1.6 | 3.2 | 0.00 | 0.00 | 0.00 | 43 | 1117.7 |
| 20260502014539 | 25 | 233 | 3.2 | 3.2 | 0.00 | 0.00 | 0.00 | 43 | 1117.6 |
| 20260502014036 | 25 | 240 | 3.2 | 4.8 | 0.00 | 0.00 | 0.00 | 43 | 1117.4 |
| 20260502013532 | 25 | 226 | 1.6 | 4.8 | 0.00 | 0.00 | 0.00 | 43 | 1117.4 |
| 20260502013028 | 25 | 221 | 1.6 | 3.2 | 0.00 | 0.00 | 0.00 | 43 | 1117.7 |
| 20260502012526 | 25 | 166 | 4.8 | 8.0 | 0.00 | 0.00 | 0.00 | 43 | 1117.3 |
| 20260502012023 | 25 | 226 | 1.6 | 4.8 | 0.00 | 0.00 | 0.00 | 43 | 1117.3 |
| 20260502011520 | 25 | 260 | 1.6 | 4.8 | 0.00 | 0.00 | 0.00 | 42 | 1117.5 |
| 20260502011016 | 25 | 228 | 3.2 | 4.8 | 0.00 | 0.00 | 0.00 | 42 | 1117.2 |
| 20260502010514 | 25 | 232 | 1.6 | 4.8 | 0.00 | 0.00 | 0.00 | 42 | 1117.5 |
| 20260502010010 | 26 | 221 | 1.6 | 4.8 | 0.00 | 0.00 | 0.00 | 41 | 1117.3 |
| 20260502005508 | 26 | 171 | 3.2 | 3.2 | 0.00 | 0.00 | 0.00 | 41 | 1117.2 |
| 20260502005005 | 26 | 219 | 3.2 | 3.2 | 0.00 | 0.00 | 0.00 | 40 | 1117.3 |
| 20260502004500 | 26 | 240 | 1.6 | 8.0 | 0.00 | 0.00 | 0.00 | 40 | 1117.0 |
| 20260502003958 | 26 | 228 | 3.2 | 11.3 | 0.00 | 0.00 | 0.00 | 40 | 1116.8 |
| 20260502003455 | 26 | 232 | 3.2 | 9.7 | 0.00 | 0.00 | 0.00 | 40 | 1116.7 |
| 20260502002951 | 26 | 227 | 6.4 | 8.0 | 0.00 | 0.00 | 0.00 | 40 | 1116.6 |
| 20260502002449 | 26 | 191 | 9.7 | 14.5 | 0.00 | 0.00 | 0.00 | 39 | 1116.5 |
| 20260502001946 | 26 | 216 | 4.8 | 8.0 | 0.00 | 0.00 | 0.00 | 39 | 1116.2 |
| 20260502001443 | 26 | 212 | 8.0 | 11.3 | 0.00 | 0.00 | 0.00 | 39 | 1116.4 |
| 20260502000941 | 27 | 203 | 8.0 | 11.3 | 0.00 | 0.00 | 0.00 | 38 | 1116.2 |
| 20260502000439 | 27 | 310 | 9.7 | 14.5 | 0.00 | 0.00 | 0.00 | 37 | 1115.9 |
| 20260501235935 | 27 | 248 | 8.0 | 12.9 | 0.00 | 0.00 | 0.00 | 37 | 1116.2 |
| 20260501235431 | 27 | 228 | 4.8 | 11.3 | 0.00 | 0.00 | 0.00 | 37 | 1116.2 |
| 20260501234926 | 27 | 203 | 6.4 | 11.3 | 0.00 | 0.00 | 0.00 | 37 | 1116.1 |
| 20260501234423 | 28 | 234 | 6.4 | 14.5 | 0.00 | 0.00 | 0.00 | 37 | 1116.3 |
| 20260501233922 | 27 | 256 | 3.2 | 8.0 | 0.00 | 0.00 | 0.00 | 36 | 1116.4 |
| 20260501233419 | 28 | 240 | 4.8 | 8.0 | 0.00 | 0.00 | 0.00 | 36 | 1116.3 |
| 20260501232914 | 28 | 241 | 4.8 | 11.3 | 0.00 | 0.00 | 0.00 | 36 | 1116.2 |
| 20260501232412 | 28 | 273 | 9.7 | 12.9 | 0.00 | 0.00 | 0.00 | 35 | 1116.2 |
| 20260501231909 | 28 | 216 | 8.0 | 9.7 | 0.00 | 0.00 | 0.00 | 35 | 1116.0 |
| 20260501231408 | 28 | 267 | 9.7 | 11.3 | 0.00 | 0.00 | 0.00 | 35 | 1116.1 |
| 20260501230905 | 28 | 207 | 8.0 | 9.7 | 0.00 | 0.00 | 0.00 | 35 | 1116.2 |
| 20260501230404 | 28 | 176 | 8.0 | 11.3 | 0.00 | 0.00 | 0.00 | 34 | 1116.1 |
| 20260501225901 | 28 | 258 | 8.0 | 17.7 | 0.00 | 0.00 | 0.00 | 34 | 1115.8 |
| 20260501225358 | 28 | 237 | 6.4 | 14.5 | 0.00 | 0.00 | 0.00 | 33 | 1116.1 |
| 20260501224854 | 29 | 227 | 4.8 | 11.3 | 0.00 | 0.00 | 0.00 | 32 | 1115.9 |
| 20260501224352 | 28 | 220 | 4.8 | 12.9 | 0.00 | 0.00 | 0.00 | 32 | 1115.7 |
| 20260501223848 | 29 | 156 | 9.7 | 17.7 | 0.00 | 0.00 | 0.00 | 32 | 1115.8 |
| 20260501223344 | 29 | 175 | 6.4 | 11.3 | 0.00 | 0.00 | 0.00 | 31 | 1115.7 |
| 20260501222840 | 28 | 263 | 6.4 | 17.7 | 0.00 | 0.00 | 0.00 | 31 | 1115.9 |
| 20260501222338 | 28 | 179 | 6.4 | 12.9 | 0.00 | 0.00 | 0.00 | 32 | 1115.9 |
| 20260501221834 | 28 | 230 | 8.0 | 12.9 | 0.00 | 0.00 | 0.00 | 31 | 1115.9 |
| 20260501221331 | 28 | 278 | 6.4 | 14.5 | 0.00 | 0.00 | 0.00 | 32 | 1115.8 |
| 20260501220830 | 29 | 193 | 8.0 | 14.5 | 0.00 | 0.00 | 0.00 | 32 | 1115.9 |
| 20260501220327 | 30 | 138 | 8.0 | 12.9 | 0.00 | 0.00 | 0.00 | 32 | 1116.2 |
| 20260501215823 | 30 | 218 | 4.8 | 12.9 | 0.00 | 0.00 | 0.00 | 33 | 1116.1 |
| 20260501215319 | 29 | 323 | 9.7 | 12.9 | 0.00 | 0.00 | 0.00 | 32 | 1115.9 |
| 20260501214815 | 28 | 249 | 4.8 | 11.3 | 0.00 | 0.00 | 0.00 | 34 | 1116.3 |
| 20260501214310 | 27 | 210 | 8.0 | 12.9 | 0.00 | 0.00 | 0.00 | 35 | 1116.3 |
| 20260501213807 | 27 | 252 | 6.4 | 9.7 | 0.00 | 0.00 | 0.00 | 36 | 1116.4 |
| 20260501213303 | 27 | 171 | 9.7 | 11.3 | 0.00 | 0.00 | 0.00 | 36 | 1116.4 |
| 20260501212759 | 28 | 228 | 9.7 | 14.5 | 0.00 | 0.00 | 0.00 | 36 | 1116.6 |
| 20260501212255 | 28 | 231 | 4.8 | 11.3 | 0.00 | 0.00 | 0.00 | 36 | 1116.4 |
| 20260501211753 | 28 | 215 | 3.2 | 16.1 | 0.00 | 0.00 | 0.00 | 36 | 1116.6 |
| 20260501211250 | 28 | 230 | 6.4 | 11.3 | 0.00 | 0.00 | 0.00 | 35 | 1116.5 |
| 20260501210747 | 30 | 256 | 8.0 | 12.9 | 0.00 | 0.00 | 0.00 | 34 | 1116.3 |
| 20260501210243 | 29 | 201 | 3.2 | 8.0 | 0.00 | 0.00 | 0.00 | 33 | 1116.6 |
| 20260501205740 | 28 | 266 | 11.3 | 16.1 | 0.00 | 0.00 | 0.00 | 35 | 1116.6 |
| 20260501205237 | 29 | 242 | 11.3 | 16.1 | 0.00 | 0.00 | 0.00 | 34 | 1116.6 |
| 20260501204734 | 29 | 265 | 3.2 | 9.7 | 0.00 | 0.00 | 0.00 | 35 | 1116.7 |
| 20260501204231 | 29 | 147 | 8.0 | 17.7 | 0.00 | 0.00 | 0.00 | 35 | 1116.7 |
| 20260501203727 | 29 | 243 | 4.8 | 4.8 | 0.00 | 0.00 | 0.00 | 35 | 1116.9 |
| 20260501203224 | 29 | 254 | 8.0 | 11.3 | 0.00 | 0.00 | 0.00 | 35 | 1116.8 |
| 20260501202721 | 28 | 251 | 3.2 | 8.0 | 0.00 | 0.00 | 0.00 | 35 | 1117.0 |
| 20260501202218 | 30 | 231 | 6.4 | 11.3 | 0.00 | 0.00 | 0.00 | 34 | 1116.9 |
| 20260501201715 | 28 | 269 | 9.7 | 12.9 | 0.00 | 0.00 | 0.00 | 36 | 1117.0 |
| 20260501201212 | 28 | 181 | 8.0 | 11.3 | 0.00 | 0.00 | 0.00 | 35 | 1117.2 |
| 20260501200708 | 28 | 242 | 11.3 | 12.9 | 0.00 | 0.00 | 0.00 | 36 | 1117.3 |
| 20260501200206 | 29 | 231 | 9.7 | 17.7 | 0.00 | 0.00 | 0.00 | 37 | 1117.4 |
| 20260501195703 | 28 | 229 | 4.8 | 9.7 | 0.00 | 0.00 | 0.00 | 36 | 1117.5 |
| 20260501195159 | 28 | 233 | 8.0 | 11.3 | 0.00 | 0.00 | 0.00 | 36 | 1117.9 |
| 20260501194655 | 28 | 158 | 9.7 | 14.5 | 0.00 | 0.00 | 0.00 | 37 | 1117.5 |
| 20260501194150 | 28 | 190 | 8.0 | 11.3 | 0.00 | 0.00 | 0.00 | 37 | 1117.8 |
| 20260501193648 | 28 | 272 | 1.6 | 11.3 | 0.00 | 0.00 | 0.00 | 36 | 1117.8 |
| 20260501193146 | 28 | 281 | 6.4 | 8.0 | 0.00 | 0.00 | 0.00 | 37 | 1117.8 |
| 20260501192643 | 28 | 342 | 8.0 | 12.9 | 0.00 | 0.00 | 0.00 | 38 | 1117.9 |
| 20260501192140 | 28 | 228 | 4.8 | 9.7 | 0.00 | 0.00 | 0.00 | 38 | 1118.2 |
| 20260501191637 | 28 | 254 | 6.4 | 9.7 | 0.00 | 0.00 | 0.00 | 39 | 1118.1 |
| 20260501191135 | 27 | 234 | 6.4 | 11.3 | 0.00 | 0.00 | 0.00 | 40 | 1118.4 |
| 20260501190632 | 27 | 219 | 1.6 | 4.8 | 0.00 | 0.00 | 0.00 | 40 | 1118.5 |
| 20260501190132 | 27 | 192 | 6.4 | 11.3 | 0.00 | 0.00 | 0.00 | 39 | 1118.6 |
| 20260501185629 | 28 | 277 | 8.0 | 11.3 | 0.00 | 0.00 | 0.00 | 39 | 1118.5 |
| 20260501185124 | 26 | 272 | 3.2 | 8.0 | 0.00 | 0.00 | 0.00 | 42 | 1118.7 |
| 20260501184621 | 27 | 198 | 6.4 | 11.3 | 0.00 | 0.00 | 0.00 | 40 | 1118.6 |
| 20260501184121 | 27 | 245 | 8.0 | 11.3 | 0.00 | 0.00 | 0.00 | 42 | 1119.0 |
| 20260501183618 | 26 | 249 | 1.6 | 3.2 | 0.00 | 0.00 | 0.00 | 41 | 1118.9 |
| 20260501183115 | 26 | 260 | 11.3 | 16.1 | 0.00 | 0.00 | 0.00 | 42 | 1118.6 |
| 20260501182611 | 27 | 264 | 8.0 | 11.3 | 0.00 | 0.00 | 0.00 | 42 | 1119.1 |
| 20260501182108 | 27 | 217 | 4.8 | 4.8 | 0.00 | 0.00 | 0.00 | 41 | 1119.0 |
| 20260501181605 | 27 | 192 | 4.8 | 4.8 | 0.00 | 0.00 | 0.00 | 43 | 1119.2 |
| 20260501181102 | 27 | 205 | 4.8 | 12.9 | 0.00 | 0.00 | 0.00 | 43 | 1119.5 |
| 20260501180600 | 27 | 191 | 4.8 | 8.0 | 0.00 | 0.00 | 0.00 | 41 | 1119.3 |
| 20260501180055 | 27 | 222 | 4.8 | 4.8 | 0.00 | 0.00 | 0.00 | 38 | 1119.4 |
| 20260501175553 | 26 | 237 | 3.2 | 8.0 | 0.00 | 0.00 | 0.00 | 38 | 1119.4 |
| 20260501175050 | 26 | 269 | 6.4 | 9.7 | 0.00 | 0.00 | 0.00 | 43 | 1119.3 |
| 20260501174546 | 26 | 224 | 6.4 | 9.7 | 0.00 | 0.00 | 0.00 | 38 | 1119.7 |
| 20260501174044 | 26 | 108 | 6.4 | 16.1 | 0.00 | 0.00 | 0.00 | 40 | 1119.6 |
| 20260501173541 | 26 | 183 | 1.6 | 8.0 | 0.00 | 0.00 | 0.00 | 39 | 1119.8 |
| 20260501173038 | 26 | 271 | 3.2 | 9.7 | 0.00 | 0.00 | 0.00 | 41 | 1119.8 |
| 20260501172533 | 26 | 179 | 4.8 | 11.3 | 0.00 | 0.00 | 0.00 | 43 | 1119.8 |
| 20260501172029 | 25 | 183 | 6.4 | 9.7 | 0.00 | 0.00 | 0.00 | 44 | 1119.9 |
| 20260501171526 | 25 | 287 | 4.8 | 8.0 | 0.00 | 0.00 | 0.00 | 41 | 1119.8 |
| 20260501171022 | 26 | 216 | 4.8 | 9.7 | 0.00 | 0.00 | 0.00 | 41 | 1119.9 |
| 20260501170519 | 25 | 255 | 3.2 | 8.0 | 0.00 | 0.00 | 0.00 | 43 | 1119.9 |
| 20260501170016 | 26 | 224 | 4.8 | 9.7 | 0.00 | 0.00 | 0.00 | 43 | 1120.2 |
| 20260501165514 | 25 | 179 | 1.6 | 4.8 | 0.00 | 0.00 | 0.00 | 44 | 1119.8 |
| 20260501165012 | 25 | 131 | 4.8 | 8.0 | 0.00 | 0.00 | 0.00 | 45 | 1120.1 |
| 20260501164509 | 25 | 229 | 4.8 | 11.3 | 0.00 | 0.00 | 0.00 | 45 | 1120.1 |
| 20260501164006 | 24 | 249 | 3.2 | 8.0 | 0.00 | 0.00 | 0.00 | 46 | 1120.1 |
| 20260501163502 | 25 | 193 | 6.4 | 9.7 | 0.00 | 0.00 | 0.00 | 45 | 1120.1 |
| 20260501162958 | 24 | 248 | 1.6 | 8.0 | 0.00 | 0.00 | 0.00 | 47 | 1120.1 |
| 20260501162455 | 25 | 229 | 9.7 | 11.3 | 0.00 | 0.00 | 0.00 | 47 | 1120.2 |
| 20260501161952 | 24 | 246 | 3.2 | 3.2 | 0.00 | 0.00 | 0.00 | 47 | 1120.0 |
| 20260501161449 | 23 | 211 | 6.4 | 9.7 | 0.00 | 0.00 | 0.00 | 48 | 1120.4 |
| 20260501160946 | 23 | 208 | 4.8 | 8.0 | 0.00 | 0.00 | 0.00 | 49 | 1120.4 |
| 20260501160442 | 23 | 238 | 6.4 | 9.7 | 0.00 | 0.00 | 0.00 | 49 | 1120.5 |
| 20260501155940 | 23 | 232 | 1.6 | 4.8 | 0.00 | 0.00 | 0.00 | 49 | 1120.5 |
| 20260501155437 | 23 | 229 | 1.6 | 4.8 | 0.00 | 0.00 | 0.00 | 48 | 1120.5 |
| 20260501154933 | 23 | 203 | 1.6 | 4.8 | 0.00 | 0.00 | 0.00 | 49 | 1120.4 |
| 20260501154431 | 22 | 235 | 1.6 | 4.8 | 0.00 | 0.00 | 0.00 | 50 | 1120.7 |
| 20260501153927 | 23 | 136 | 3.2 | 8.0 | 0.00 | 0.00 | 0.00 | 49 | 1120.5 |
| 20260501153426 | 22 | 219 | 1.6 | 1.6 | 0.00 | 0.00 | 0.00 | 50 | 1120.7 |
| 20260501152921 | 22 | 70 | 3.2 | 4.8 | 0.00 | 0.00 | 0.00 | 50 | 1120.7 |
| 20260501152418 | 22 | 192 | 3.2 | 4.8 | 0.00 | 0.00 | 0.00 | 49 | 1120.5 |